Monterey, Australia

5:59 AM AEST on June 27, 2017 (GMT +1000)
Monterey

Weather History for 94767 - December, 2013

Change the Weather History Date:

Thursday, December 26, 2013

  Actual Average Record
Temperature  
Mean Temperature 70 °F -  
Max Temperature 75 °F 80 °F - ()
Min Temperature 66 °F 65 °F - ()
Cooling Degree Days 6    
Growing Degree Days 20 (Base 50)    
Moisture  
Dew Point 64 °F    
Average Humidity 80    
Maximum Humidity 94    
Minimum Humidity 51    
Precipitation  
Precipitation 0.02 in 0.15 in - ()
Sea Level Pressure  
Sea Level Pressure 29.86 in    
Wind  
Wind Speed 12 mph ()    
Max Wind Speed 24 mph    
Max Gust Speed -    
Visibility 7.1 miles    
Events Rain    
T = Trace of Precipitation, MM = Missing Value Source: Averaged Metar Reports

Daily Weather History Graph

Daily Weather History Graph

Search for Another Location

Airport or City:

Trip Planner

Search our weather history database for the weather conditions in past years. The results will help you decide how hot, cold, wet, or windy it might be!

Date:

Astronomy

Dec. 26, 2013 Rise Set
Actual Time 5:43 AM AEDT 8:08 PM AEDT
Civil Twilight 5:14 AM AEDT 8:37 PM AEDT
Nautical Twilight 4:38 AM AEDT 9:13 PM AEDT
Astronomical Twilight 3:58 AM AEDT 9:52 PM AEDT
Moon 12:38 AM AEDT 1:28 PM AEDT
Length of Visible Light 15h 23m
Length of Day
14h 24m
Last Quarter, 45% of the Moon is Illuminated
Dec 26
Last Quarter
Jan 1
New
Jan 8
First Quarter
Jan 16
Full
Jan 24
Last Quarter

Hourly Weather History & Observations

Time (AEDT) Temp. Dew Point Humidity Pressure Visibility Wind Dir Wind Speed Gust Speed Precip Events Conditions
12:00 AM 68 °F 66 °F 92% 29.90 in 6 mi NNE 10.4 mph - - Rain Light Rain Showers
12:00 AM 68.0 °F 66.2 °F 94% 29.89 in 5.6 mi North 10.4 mph - N/A Rain Light Rain Showers
12:22 AM 68.0 °F 66.2 °F 94% 29.89 in 3.7 mi North 8.1 mph - N/A Rain Light Rain
12:30 AM 68.0 °F 66.2 °F 94% 29.86 in 3.7 mi North 8.1 mph - N/A Rain Light Rain
12:48 AM 68.0 °F 66.2 °F 94% 29.86 in 4.3 mi North 6.9 mph - N/A   Light Drizzle
1:00 AM 68 °F 67 °F 94% 29.87 in - North 6.9 mph - -  
1:00 AM 68.0 °F 66.2 °F 94% 29.86 in 6.2 mi North 6.9 mph - N/A Rain Light Rain
1:30 AM 68.0 °F 66.2 °F 94% 29.86 in 6.2 mi NNW 6.9 mph - N/A   Mostly Cloudy
1:48 AM 68.0 °F 66.2 °F 94% 29.83 in 6.2 mi NW 8.1 mph - N/A   Mostly Cloudy
2:00 AM 68 °F 66 °F 92% 29.85 in - NW 8.1 mph - -  
2:00 AM 68.0 °F 66.2 °F 94% 29.83 in 6.2 mi NW 8.1 mph - N/A   Mostly Cloudy
2:30 AM 68.0 °F 66.2 °F 94% 29.83 in 6.2 mi WNW 11.5 mph - N/A   Mostly Cloudy
2:46 AM 68.0 °F 66.2 °F 94% 29.80 in 6.2 mi NW 10.4 mph - N/A   Mostly Cloudy
3:00 AM 67 °F 65 °F 93% 29.82 in 19 mi NW 10.4 mph - -   Partly Cloudy
3:00 AM 68.0 °F 66.2 °F 94% 29.80 in 6.2 mi NW 10.4 mph - N/A   Mostly Cloudy
3:08 AM 68.0 °F 66.2 °F 94% 29.80 in 6.2 mi WNW 10.4 mph - N/A   Mostly Cloudy
3:30 AM 66.2 °F 64.4 °F 94% 29.80 in 6.2 mi WNW 15.0 mph - N/A   Mostly Cloudy
4:00 AM 67 °F 64 °F 88% 29.83 in - SW 21.9 mph - -  
4:00 AM 66.2 °F 64.4 °F 94% 29.80 in 6.2 mi SW 21.9 mph - N/A   Mostly Cloudy
4:30 AM 66.2 °F 64.4 °F 94% 29.83 in 6.2 mi SSW 24.2 mph - N/A   Mostly Cloudy
5:00 AM 67 °F 64 °F 86% 29.85 in - SSW 24.2 mph - -  
5:00 AM 66.2 °F 64.4 °F 94% 29.83 in 6.2 mi SSW 24.2 mph - N/A Rain Light Rain Showers
5:30 AM 66.2 °F 64.4 °F 94% 29.86 in 6.2 mi SSW 20.7 mph - N/A   Mostly Cloudy
6:00 AM 67 °F 64 °F 89% 29.87 in 11 mi South 20.7 mph - -   Mostly Cloudy
6:00 AM 68.0 °F 64.4 °F 88% 29.86 in 6.2 mi South 20.7 mph - N/A   Mostly Cloudy
6:30 AM 68.0 °F 64.4 °F 88% 29.86 in 6.2 mi South 20.7 mph - N/A   Mostly Cloudy
7:00 AM 68 °F 65 °F 85% 29.88 in - South 17.3 mph - -  
7:00 AM 68.0 °F 64.4 °F 88% 29.86 in 6.2 mi South 17.3 mph - N/A   Mostly Cloudy
7:30 AM 68.0 °F 64.4 °F 88% 29.86 in 3.1 mi South 17.3 mph - N/A Rain Light Rain Showers
7:50 AM 68.0 °F 66.2 °F 94% 29.89 in 5.6 mi South 15.0 mph - N/A   Mostly Cloudy
8:00 AM 69 °F 64 °F 79% 29.89 in - South 16.1 mph - -  
8:00 AM 68.0 °F 64.4 °F 88% 29.89 in 6.2 mi South 16.1 mph - N/A   Mostly Cloudy
8:30 AM 68.0 °F 64.4 °F 88% 29.89 in 6.2 mi South 16.1 mph - N/A   Mostly Cloudy
9:00 AM 70 °F 65 °F 78% 29.90 in 16 mi SSW 12.7 mph - -   Mostly Cloudy
9:00 AM 69.8 °F 64.4 °F 83% 29.89 in 6.2 mi SSW 12.7 mph - N/A   Mostly Cloudy
9:30 AM 69.8 °F 64.4 °F 83% 29.89 in 5.6 mi South 15.0 mph - N/A   Mostly Cloudy
10:00 AM 69 °F 65 °F 82% 29.90 in - SW 12.7 mph - -  
10:00 AM 68.0 °F 64.4 °F 88% 29.89 in 6.2 mi SW 12.7 mph - N/A   Mostly Cloudy
10:30 AM 69.8 °F 64.4 °F 83% 29.89 in 6.2 mi SSW 15.0 mph - N/A   Scattered Clouds
11:00 AM 71 °F 63 °F 70% 29.90 in - SSW 17.3 mph - -  
11:00 AM 71.6 °F 62.6 °F 73% 29.89 in 6.2 mi SSW 17.3 mph - N/A   Scattered Clouds
11:30 AM 73.4 °F 64.4 °F 73% 29.89 in 6.2 mi South 17.3 mph - N/A   Scattered Clouds
12:00 PM 72 °F 63 °F 65% 29.89 in 16 mi South 19.6 mph - -   Partly Cloudy
12:00 PM 71.6 °F 62.6 °F 73% 29.89 in 6.2 mi South 19.6 mph - N/A   Scattered Clouds
12:30 PM 71.6 °F 62.6 °F 73% 29.86 in 6.2 mi South 18.4 mph - N/A   Partly Cloudy
1:00 PM 73 °F 62 °F 59% 29.87 in - SSE 17.3 mph - -  
1:00 PM 73.4 °F 60.8 °F 65% 29.86 in 6.2 mi SSE 17.3 mph - N/A   Partly Cloudy
1:30 PM 71.6 °F 60.8 °F 69% 29.86 in 6.2 mi South 17.3 mph - N/A   Partly Cloudy
2:00 PM 75 °F 62 °F 54% 29.86 in - SSE 15.0 mph - -  
2:00 PM 75.2 °F 60.8 °F 61% 29.86 in 6.2 mi SSE 15.0 mph - N/A   Partly Cloudy
2:30 PM 73.4 °F 62.6 °F 69% 29.86 in 6.2 mi SSE 13.8 mph - N/A   Partly Cloudy
3:00 PM 75 °F 60 °F 51% 29.85 in 19 mi SSE 13.8 mph - -   Partly Cloudy
3:00 PM 75.2 °F 60.8 °F 61% 29.83 in 6.2 mi SSE 13.8 mph - N/A   Partly Cloudy
3:30 PM 75.2 °F 59.0 °F 57% 29.83 in 6.2 mi SE 15.0 mph - N/A   Partly Cloudy
4:00 PM 74 °F 60 °F 52% 29.83 in - ESE 15.0 mph - -  
4:00 PM 73.4 °F 59.0 °F 61% 29.83 in 6.2 mi ESE 15.0 mph - N/A   Partly Cloudy
4:30 PM 75.2 °F 60.8 °F 61% 29.80 in 6.2 mi SE 12.7 mph - N/A   Partly Cloudy
5:00 PM 75 °F 60 °F 51% 29.81 in - SE 12.7 mph - -  
5:00 PM 75.2 °F 60.8 °F 61% 29.80 in 6.2 mi SE 12.7 mph - N/A   Partly Cloudy
5:30 PM 73.4 °F 60.8 °F 65% 29.80 in 6.2 mi SE 12.7 mph - N/A   Partly Cloudy
6:00 PM 73 °F 61 °F 58% 29.81 in 19 mi SE 13.8 mph - -   Partly Cloudy
6:00 PM 73.4 °F 60.8 °F 65% 29.80 in 6.2 mi SE 13.8 mph - N/A   Partly Cloudy
6:30 PM 73.4 °F 60.8 °F 65% 29.80 in 6.2 mi SE 12.7 mph - N/A   Partly Cloudy
7:00 PM 72 °F 61 °F 60% 29.83 in - SE 12.7 mph - -  
7:00 PM 71.6 °F 60.8 °F 69% 29.83 in 6.2 mi SE 12.7 mph - N/A   Partly Cloudy
7:30 PM 71.6 °F 60.8 °F 69% 29.86 in 6.2 mi SSE 15.0 mph - N/A   Partly Cloudy
8:00 PM 71 °F 63 °F 70% 29.89 in - South 18.4 mph - -  
8:00 PM 71.6 °F 62.6 °F 73% 29.89 in 6.2 mi South 18.4 mph - N/A Rain Light Rain Showers
8:30 PM 71.6 °F 62.6 °F 73% 29.89 in 6.2 mi South 18.4 mph - N/A Rain Light Rain Showers
9:00 PM 69 °F 65 °F 82% 29.90 in 12 mi South 12.7 mph - - Rain Light Rain Showers
9:00 PM 69.8 °F 64.4 °F 83% 29.89 in 6.2 mi South 12.7 mph - N/A Rain Light Rain Showers
9:30 PM 69.8 °F 64.4 °F 83% 29.89 in 6.2 mi South 11.5 mph - N/A   Mostly Cloudy
10:00 PM 69 °F 64 °F 80% 29.91 in - SW 8.1 mph - -  
10:00 PM 69.8 °F 64.4 °F 83% 29.89 in 6.2 mi SW 8.1 mph - N/A   Mostly Cloudy
10:30 PM 69.8 °F 66.2 °F 88% 29.92 in 6.2 mi West 10.4 mph - N/A   Mostly Cloudy
11:00 PM 67 °F 64 °F 89% 29.91 in - West 10.4 mph - -  
11:00 PM 68.0 °F 64.4 °F 88% 29.89 in 6.2 mi West 10.4 mph - N/A   Partly Cloudy
11:30 PM 66.2 °F 62.6 °F 88% 29.92 in 6.2 mi WSW 11.5 mph - N/A   Scattered Clouds